CAPE
144 127 122 132 142 153 197 417 473 626 753 1073 1168 1216 1399 1605 1716 1794 1912 2131 2276 2244 2336 2534 2686 2326 2087 2274 2506 2806 2363 2127 2429 1807 1946 2076 2416 2595 2453 2508 2460 2302 2278 2681 2483 2528 2597 2472 2497 2557 2462 2548 3129 2930 2759 3250 2960 3643 3969 4261 4062 3961 3499
124 117 135 152 165 152 143 353 377 435 564 974 1096 1250 1389 1509 1597 1680 1870 2053 2200 2184 2189 2434 2629 2398 2209 2422 2485 3059 2574 2756 2593 2531 2215 2643 3017 2527 2666 2739 2468 2293 2413 2839 2868 2342 2322 2396 2410 2539 2527 2682 3136 2865 2868 3198 3082 3510 3727 4005 3867 3737 3712
132 122 119 153 164 180 189 398 387 378 476 899 1052 1279 1401 1458 1471 1547 1732 1956 2067 2089 2081 2224 2544 2528 2431 2568 2753 3098 2941 3100 2770 2512 2400 2668 2746 2552 2586 2884 2532 2344 2226 2657 3008 2535 2217 2243 2418 2416 2464 2415 2832 3078 2996 3142 3231 3424 3424 3636 3946 3909 3718
173 101 118 144 165 178 368 441 461 457 573 860 1071 1315 1413 1476 1421 1422 1611 1839 1922 2004 1984 1902 2377 2480 2510 2507 2962 3020 3090 3169 2934 2503 2448 2684 2733 2417 2427 2669 2647 2463 2403 2522 2842 2815 2976 2497 2638 2387 3215 2322 2656 2936 2983 3076 2965 3070 3178 3262 3305 3491 3145
230 148 180 168 126 275 406 470 529 511 486 820 1098 1381 1456 1536 1460 1400 1514 1713 1825 1963 2036 1951 2229 2340 2441 2344 2978 2964 3091 3023 3059 2677 2524 2606 2784 2509 2282 2173 2392 2480 2572 2644 2719 2764 2921 2800 2781 2542 2807 2168 2426 2907 2704 2903 2870 2894 3006 3391 3054 3249 3408
235 298 187 162 84 184 419 444 548 542 506 744 1080 1348 1495 1592 1557 1514 1572 1745 1735 1931 2082 2099 2270 2238 2207 2200 2818 2912 3016 2902 2891 2808 2658 2395 2527 2526 2367 2161 2039 2265 2429 2628 2748 2652 2709 2742 2740 2786 2890 2218 2537 2916 2643 2668 2763 2746 2752 3525 3212 3133 3469
209 348 132 147 165 198 384 437 488 535 483 562 994 1297 1489 1597 1609 1650 1714 1826 1879 1952 2049 2132 2251 2269 2114 2288 2592 2896 2884 2801 2720 2739 2650 2526 2090 2369 2238 2358 2526 2295 2358 2454 2480 2446 2514 2527 2459 2914 2991 2736 2875 2906 2800 2699 2777 2723 2598 3336 3471 3289 3418
256 354 235 153 105 183 304 383 392 381 260 438 946 1335 1462 1542 1610 1736 1836 1927 1967 1964 1979 2044 2144 2206 2205 2349 2425 2735 2821 2742 2569 2546 2450 2414 2161 1929 2110 2237 2282 2362 2432 2343 2285 2143 2072 2427 2565 2819 2729 2924 2863 2962 2902 2757 2729 2848 2618 3020 3346 3272 3088
735 549 263 114 83 178 190 293 330 286 331 476 954 1324 1418 1569 1650 1774 1914 2077 2039 2053 1974 1942 2003 2050 2139 2313 2456 2461 2644 2667 2595 2403 2340 2209 2174 2098 2013 2012 2105 2188 2101 1954 2108 2100 1812 2288 2566 2703 2704 2724 2817 2849 2866 2718 2577 2625 2728 2739 3086 3197 3124
555 492 516 704 70 113 145 202 274 269 422 472 885 1264 1393 1632 1730 1778 1904 2144 2111 2177 2102 1998 1937 1924 1993 2118 2421 2419 2354 2526 2621 2375 2383 2218 2166 2189 2031 1884 2098 2108 2067 1933 1921 1971 1870 1908 2299 2574 2673 2646 2646 2669 2699 2708 2669 2512 2591 2760 2735 2798 2920
516 951 1155 611 562 160 85 61 116 117 382 471 745 1004 1315 1639 1786 1807 1868 2095 2081 2156 2187 2116 2000 1948 1861 1896 2104 2317 2157 2157 2431 2414 2358 2237 1982 1785 1601 1608 1646 1704 1948 2004 1867 1865 1755 1625 1939 2351 2595 2577 2496 2491 2592 2632 2585 2510 2576 2692 2834 2805 2810
397 599 1066 552 700 293 212 44 113 163 297 475 727 840 1050 1432 1757 1820 1849 2030 2005 2010 2135 2156 2079 1966 1944 1893 1937 1980 2059 1954 2017 2177 2120 2052 1950 1728 1531 1669 1630 1639 1788 1800 1752 1785 1926 1800 1802 1887 2269 2482 2451 2318 2245 2200 2286 2393 2465 2706 2903 2933 2958
270 485 947 663 487 438 146 13 80 208 339 391 664 814 1013 1222 1577 1747 1835 1950 2019 2002 2024 2112 2097 1982 1945 1903 1838 1674 1632 1781 1820 1916 1943 1909 1810 1668 1609 1602 1521 1524 1530 1660 1507 1597 1662 1892 1995 1917 1876 2056 2151 2215 2278 2331 2502 2628 2577 2602 2659 2718 2759
977 1260 1083 899 799 440 214 64 109 121 420 385 594 712 885 1120 1320 1440 1609 1751 1941 2040 2034 2091 2129 1958 1784 1742 1664 1499 1498 1605 1621 1648 1704 1760 1726 1612 1621 1625 1560 1630 1578 1488 1474 1382 1347 1597 1578 1645 1944 1953 1964 1979 2196 2212 2292 2287 2368 2435 2455 2404 2430
946 889 920 930 681 633 548 471 320 201 229 405 528 706 788 1023 1199 1280 1435 1562 1693 1882 2011 2000 1997 1866 1647 1580 1550 1369 1322 1408 1418 1504 1527 1508 1575 1632 1681 1612 1404 1500 1640 1588 1561 1470 1407 1358 1595 1911 2064 1937 2012 2171 2432 2542 2398 2352 2381 2589 2610 2562 2648
990 960 810 915 584 595 670 698 605 540 580 914 554 819 1075 1035 1100 1240 1401 1528 1650 1719 1798 1758 1751 1645 1471 1353 1364 1301 1222 1176 1039 1161 1265 1249 1190 1198 1240 1405 1355 1367 1433 1565 1565 1531 1456 1332 1206 1595 2052 2217 2132 1989 2031 2210 2782 3242 3599 3479 3060 2678 2614
1034 685 809 803 548 597 571 636 737 878 1112 988 762 961 1514 1540 1430 1292 1436 1452 1429 1490 1524 1512 1451 1342 1222 1106 1098 1150 1186 1130 1099 1092 1097 1250 915 996 867 668 767 1235 1371 1331 1371 1442 1443 1318 1209 1318 1565 2002 2242 2022 1736 1825 2230 2596 2656 2734 2855 3033 2829
1171 1007 1017 817 858 741 600 731 845 1032 965 943 763 1114 1546 1672 1485 1313 1498 1489 1239 1316 1352 1240 1423 1357 1135 1017 1008 1063 1086 1078 1163 1124 1214 1919 2082 2085 2251 2370 2280 1833 1400 1309 1341 1409 1396 1316 1264 1258 1284 1371 1726 2093 2211 2133 2007 2137 2207 2156 2187 2398 2523
881 914 912 1050 1009 844 593 540 728 1095 1191 1094 1031 1123 1371 1550 1578 1294 1294 1447 1289 1524 1504 1250 1540 1743 1640 1674 1976 1797 1261 1110 1108 1086 1724 2199 2530 2779 2679 2284 2092 1913 1722 1580 1688 1728 1266 1253 1162 1150 1246 1220 1072 1267 1705 1971 2008 1861 1704 1495 1193 1320 1670
800 766 725 921 812 947 691 650 659 936 1125 1235 1247 1039 905 1250 1495 1450 1141 965 1448 1551 1575 1261 1012 1573 2120 2017 2104 2176 2130 1965 1477 1348 1829 2086 2263 2470 2524 2294 1983 1893 1786 1710 1838 1917 1604 1216 892 738 735 666 682 745 915 1146 1315 1411 1442 1394 1190 892 706
908 748 662 616 774 876 906 764 744 813 1013 1263 1344 1143 1308 1415 1261 1208 1360 1248 1238 1924 1804 1634 1184 1605 2041 2090 2233 2276 2245 1986 1709 1317 1298 1808 2067 2062 2202 2208 2147 1932 1844 1899 1916 1868 1586 1128 802 650 562 498 523 564 600 616 603 548 539 537 517 508 822
505 434 510 625 668 644 859 880 736 726 725 724 811 956 969 1367 1279 1360 1294 1254 1212 1433 1691 1961 1825 1316 1647 2178 2249 2321 2377 2308 2029 1466 1172 1345 1745 2009 2143 2122 2066 2014 2022 1957 1916 1983 1877 1540 1179 861 663 534 461 403 369 293 341 413 436 464 515 1053 1634
572 612 549 615 630 618 634 931 802 846 854 872 817 680 708 1178 1441 1608 1548 1463 1263 1404 1430 1618 1760 1881 1749 1496 2046 2289 2293 2245 2006 1544 1431 1276 1412 1779 1933 1984 2148 2128 2154 2276 2199 1992 1886 1880 1835 1573 1173 881 744 642 592 505 459 419 391 427 576 1110 1467
46 55 320 522 760 897 780 972 1119 1202 1216 1107 1118 1084 1055 1184 1461 1667 1770 1668 1768 1676 1532 1485 1597 1634 1651 1648 1680 1867 2222 2277 1965 1788 1732 1837 1620 1556 1663 1826 1840 1875 1773 1921 2258 2290 2078 2005 1864 1806 1769 1653 1468 1235 1124 948 780 707 625 562 497 697 1096
107 109 137 380 505 895 819 911 1099 1169 1267 1368 1239 1250 1083 1182 1387 1400 1247 1406 1626 1715 1659 1641 1595 1513 1450 1446 1480 1549 1600 1716 1861 1909 1702 1718 1745 1635 1401 1538 1818 1651 1570 1644 1804 1944 1877 1786 1793 1758 1658 1567 1555 1554 1545 1552 1458 1292 1152 1005 863 746 766
25 12 33 232 331 530 716 798 913 969 964 935 985 997 970 919 869 826 780 846 989 1194 1415 1489 1559 1568 1359 1175 1210 1281 1265 1329 1588 1750 1760 1599 1509 1576 1319 1233 1482 1448 1456 1443 1402 1460 1423 1366 1330 1329 1342 1287 1283 1236 1225 1277 1354 1416 1430 1444 1349 1206 1024
22 1 1 0 183 344 466 542 601 631 693 754 739 753 779 895 940 889 764 723 695 702 786 773 881 1141 1294 1324 1420 1409 1574 1610 1559 1450 1393 1267 1176 1126 1210 1230 1259 1316 1189 1163 991 1099 1130 1073 961 849 882 948 1030 1103 1034 884 968 918 1053 1092 1101 1079 1003
86 0 0 0 102 246 310 360 389 345 379 425 517 612 628 498 388 438 488 508 544 603 622 617 640 694 732 767 954 1142 1139 1188 1141 1111 938 799 727 746 821 888 1031 1080 958 931 965 897 924 885 587 540 453 391 581 527 408 441 436 500 715 735 715 696 649
0 0 0 0 0 30 172 183 125 0 0 134 69 82 80 231 270 313 318 425 441 395 241 419 520 568 436 419 558 633 578 551 480 433 428 426 385 390 304 349 523 624 625 688 721 670 700 586 383 224 291 225 274 244 316 352 336 372 418 422 414 411 421
0 0 0 0 0 0 0 0 0 0 0 0 0 0 0 0 130 236 244 275 254 266 328 337 315 347 309 294 222 190 223 61 181 279 251 299 270 236 187 261 279 271 313 326 358 319 334 299 261 239 200 191 166 190 224 229 284 262 214 168 181 205 267
0 0 0 0 0 0 0 0 0 0 0 0 0 0 0 0 14 142 157 196 207 230 220 87 161 148 188 76 193 100 176 176 36 175 224 254 259 244 199 143 180 193 182 260 280 295 249 196 149 235 182 157 165 216 238 265 176 91 186 222 166 137 156
0 0 0 0 0 0 0 0 0 0 0 0 0 0 0 0 0 0 0 46 98 122 181 184 132 41 66 114 141 157 171 151 105 115 132 129 136 121 100 83 44 16 116 169 75 142 128 73 56 33 43 97 176 204 186 175 99 146 158 112 75 18 12
0 0 0 0 0 0 0 0 0 0 0 0 0 0 0 0 0 0 0 0 0 0 0 0 0 0 0 0 0 0 0 10 62 43 32 113 105 56 9 0 0 0 0 0 0 0 0 0 0 14 40 1 26 50 25 23 41 95 98 80 70 66 61
0 0 0 0 0 0 0 0 0 0 0 0 0 0 0 0 0 0 0 0 0 0 0 0 0 0 0 0 0 0 0 0 0 3 0 0 0 0 0 0 0 0 0 0 0 0 0 0 0 20 18 7 10 9 21 11 0 2 8 0 0 0 0
0 0 0 0 0 0 0 0 0 0 0 0 0 0 0 0 0 0 0 0 0 0 0 0 0 0 0 0 0 0 0 0 0 0 0 0 0 0 0 0 0 0 0 0 0 0 0 0 0 0 0 1 23 13 0 0 0 0 0 0 0 0 0
0 0 0 0 0 0 0 0 0 0 0 0 0 0 0 0 0 0 0 0 0 0 0 2 0 0 0 0 0 0 0 0 0 0 0 0 0 0 0 0 0 0 0 0 0 0 0 0 0 0 2 6 0 0 0 0 0 0 0 0 0 0 0
2 0 0 0 0 0 0 0 0 0 0 0 0 0 0 0 0 0 0 0 0 0 0 0 0 0 0 0 0 0 0 0 0 0 0 0 0 0 0 0 0 0 0 0 0 0 0 0 0 0 0 0 0 0 0 0 0 0 0 0 0 0 0
74 49 4 2 0 0 0 0 0 0 0 0 0 0 0 0 0 0 0 0 0 0 0 0 0 0 0 0 0 22 0 0 0 0 0 0 0 0 0 0 0 0 0 0 0 0 0 0 0 0 0 0 0 0 0 0 0 0 0 0 0 0 0
Wind_Speed
18 16 16 13 13 11 9 9 8 7 8 5 4 4 6 5 4 4 3 3 3 5 7 8 8 9 9 10 11 11 9 8 8 6 7 6 6 5 4 3 1 1 2 3 4 5 6 6 5 7 7 7 7 7 6 5 5 7 7 7 8 8 8
21 16 16 14 13 12 10 10 9 11 10 7 6 6 7 6 7 5 3 2 2 2 4 6 7 8 7 8 9 10 9 8 7 7 7 7 7 6 4 3 2 1 2 2 2 4 4 5 4 6 7 6 6 6 5 5 4 5 5 5 5 6 7
25 18 15 14 12 12 11 11 9 12 11 8 7 7 7 8 7 5 5 4 3 3 4 4 5 7 8 7 7 8 9 8 7 5 5 5 5 4 5 4 3 2 2 2 2 3 4 4 4 5 6 5 5 5 5 4 4 3 4 3 3 3 4
23 22 19 15 13 13 11 12 10 12 11 9 8 7 8 9 8 7 6 4 3 4 3 4 4 5 7 8 7 8 8 8 7 6 5 5 4 5 5 4 3 3 1 1 2 3 4 3 4 4 4 3 4 3 3 3 3 3 3 2 3 2 2
22 23 21 22 20 15 12 12 11 12 11 9 10 10 10 10 10 9 8 6 5 3 3 3 5 6 7 8 9 8 7 8 8 8 6 6 6 6 4 3 3 3 1 1 2 2 4 3 3 3 3 3 3 2 2 2 2 2 2 1 1 1 1
20 22 21 17 nan 14 12 11 10 12 12 10 10 11 12 11 12 10 9 8 8 7 7 6 6 7 6 7 9 9 9 9 10 9 8 6 7 6 4 4 3 3 2 1 2 1 3 4 4 3 2 2 2 2 1 1 1 1 1 1 0 1 1
19 20 20 17 18 16 13 12 12 13 13 13 12 14 13 12 12 11 11 10 9 8 7 7 6 7 7 8 8 9 9 8 9 9 9 8 7 6 5 5 5 3 3 5 3 3 4 4 4 4 3 3 2 2 1 1 2 2 3 3 1 1 2
22 22 20 16 17 16 16 14 14 15 15 16 15 14 13 13 13 13 12 12 11 11 10 9 8 8 8 8 8 9 9 9 9 10 10 8 8 7 7 6 6 5 6 5 5 5 5 5 5 5 4 4 4 3 3 3 3 4 5 4 3 3 3
31 28 26 18 nan 17 17 17 16 16 16 15 14 14 15 15 14 14 14 14 13 13 11 11 9 10 10 10 11 9 9 10 10 11 10 9 10 8 8 7 7 8 7 6 7 7 6 6 6 6 5 5 5 5 5 4 3 5 6 5 5 5 4
29 30 29 27 nan 20 18 19 19 18 17 16 14 15 16 15 15 15 15 15 15 13 13 13 12 12 12 12 12 11 10 10 10 10 11 10 10 9 9 9 9 10 8 8 8 7 7 7 7 8 7 6 6 6 5 5 4 5 5 6 6 5 5
26 35 35 29 26 22 nan nan 19 17 17 16 15 16 17 17 15 15 14 15 15 15 15 15 15 14 13 13 12 13 12 10 10 10 10 11 11 10 10 10 10 11 10 10 10 9 9 9 10 10 9 7 7 7 6 5 5 5 5 5 6 6 5
29 37 36 34 32 28 17 nan 18 17 18 18 17 16 17 17 16 14 14 14 15 15 16 16 17 16 15 14 14 14 13 12 12 11 10 10 11 10 10 10 10 11 11 11 10 11 11 11 11 11 10 9 9 9 7 6 7 7 7 6 6 6 6
28 34 36 35 35 32 34 nan nan 18 18 19 18 17 17 17 16 14 13 14 15 15 16 16 17 17 16 16 15 16 15 15 14 14 12 11 10 10 10 10 10 10 10 11 11 11 12 12 12 12 11 10 11 11 10 10 9 9 8 8 7 7 7
22 33 36 35 38 34 31 nan 40 24 19 20 20 19 18 17 17 16 14 14 14 14 15 16 16 16 16 16 16 17 16 16 17 17 16 15 13 12 11 11 12 11 11 12 12 11 12 12 12 13 13 12 12 11 11 11 11 11 10 10 9 9 9
9 20 26 32 34 33 34 35 34 40 29 19 20 19 19 18 18 17 15 14 13 13 13 15 15 15 15 16 16 17 18 18 19 19 18 16 16 14 13 13 13 13 13 14 13 13 13 13 14 15 13 13 13 13 12 12 11 12 12 12 11 12 12
5 7 14 22 25 27 30 33 36 33 34 28 18 21 20 19 18 18 17 16 16 15 16 17 14 15 14 14 15 17 18 18 19 19 19 18 17 17 16 14 14 14 14 15 15 15 15 16 17 17 16 16 14 13 13 14 15 16 13 13 14 14 13
21 23 26 26 26 26 28 33 36 36 34 38 33 26 24 22 20 20 21 20 20 20 19 20 19 18 16 14 14 16 18 19 18 19 19 20 19 17 18 17 16 16 16 16 16 16 16 18 18 18 18 18 16 14 18 20 22 23 20 18 17 17 17
27 28 28 27 30 31 28 29 31 34 38 38 34 34 33 29 24 22 21 21 20 21 22 22 22 21 19 18 19 19 18 18 19 20 22 24 25 24 23 22 23 23 21 19 20 20 20 19 18 19 20 21 22 22 23 23 23 23 24 24 22 21 21
23 23 21 18 22 25 27 27 31 35 40 39 36 35 32 31 32 34 35 33 27 25 24 25 27 28 27 28 28 26 22 20 20 21 24 25 25 25 24 24 25 25 25 25 23 23 23 22 22 22 23 24 24 24 24 25 25 24 25 25 25 24 22
24 23 17 17 19 23 28 29 31 34 38 38 39 42 43 42 39 36 37 38 37 35 33 34 32 31 33 34 33 32 32 30 26 25 25 26 26 26 26 25 24 24 25 27 27 27 26 25 24 24 24 24 26 26 27 27 27 26 25 25 25 25 25
26 25 20 16 18 22 23 28 36 35 38 41 43 42 44 46 42 38 36 35 32 27 27 29 28 28 32 32 29 29 30 31 34 35 34 33 30 28 27 28 28 26 26 28 29 28 27 27 27 27 27 28 29 29 29 29 29 28 28 27 26 25 25
26 26 27 25 23 22 22 28 33 37 41 41 41 40 39 39 39 38 34 30 28 27 29 28 27 26 30 30 27 30 31 32 32 32 31 30 28 30 31 29 27 26 27 29 29 28 29 28 27 27 28 28 29 31 31 29 30 29 29 29 27 27 28
28 27 26 25 26 25 23 24 25 29 35 39 37 36 37 34 34 34 33 29 27 32 34 33 34 33 34 34 34 34 35 35 35 34 32 29 28 29 29 28 26 26 28 29 27 27 27 27 27 27 28 28 28 31 31 30 30 31 31 31 29 28 29
nan nan 26 26 25 24 24 22 19 19 25 30 31 30 32 33 32 31 30 26 25 29 31 32 32 32 35 38 40 40 39 37 35 32 31 28 29 32 31 29 28 28 30 30 28 29 30 30 31 31 29 29 30 30 32 32 31 32 34 33 32 30 30
26 25 23 23 25 26 23 21 21 20 22 25 27 26 26 27 27 27 26 24 24 26 27 27 27 27 29 34 38 40 40 38 35 33 31 30 31 32 34 35 33 34 33 33 33 32 32 33 35 35 34 33 33 35 35 34 34 35 36 36 34 32 32
nan nan nan 23 25 26 24 23 24 25 28 30 30 30 30 29 30 30 28 26 25 28 28 27 27 26 25 27 29 32 35 33 30 28 28 31 33 35 36 37 37 35 35 35 36 36 34 35 37 39 38 37 36 35 34 37 37 38 38 38 37 35 36
nan nan nan nan 26 24 25 27 28 28 28 28 29 30 30 29 30 28 27 27 28 29 28 27 28 29 28 27 27 26 27 28 28 27 26 28 29 34 39 40 39 36 34 36 38 38 37 38 40 41 40 39 38 35 34 39 42 41 42 42 41 41 40
nan nan nan nan 31 26 25 27 29 27 26 26 28 30 30 30 29 28 29 30 29 26 25 26 28 28 29 29 29 28 27 28 28 27 27 26 25 24 28 32 32 33 34 36 38 39 39 40 40 42 41 39 41 39 39 44 47 41 41 43 43 43 41
nan nan nan nan nan nan 27 29 31 nan nan 31 nan nan nan 34 33 31 33 34 29 26 26 26 27 31 32 31 31 29 28 28 29 28 28 28 27 27 26 24 24 26 29 33 36 37 39 38 38 42 42 38 39 43 45 45 45 43 41 43 48 49 49
nan nan nan nan nan nan nan nan nan nan nan nan nan nan nan nan 39 36 38 36 30 30 31 30 30 33 35 35 35 35 32 nan 33 33 31 31 32 32 31 28 26 26 26 30 33 33 34 33 33 39 42 41 40 45 47 47 46 48 47 47 51 50 52
nan nan nan nan nan nan nan nan nan nan nan nan nan nan nan nan nan 37 36 33 31 32 34 nan 36 36 36 nan 34 35 35 35 nan 35 34 33 33 32 31 32 32 31 28 31 32 31 28 25 26 29 32 36 41 45 46 46 46 nan 49 55 53 52 53
nan nan nan nan nan nan nan nan nan nan nan nan nan nan nan nan nan nan nan nan nan 35 35 36 37 nan nan 37 34 33 33 33 31 31 32 33 33 33 32 nan nan nan 32 33 nan 33 30 nan nan nan nan nan 34 41 42 41 nan 42 45 48 nan nan nan
nan nan nan nan nan nan nan nan nan nan nan nan nan nan nan nan nan nan nan nan nan nan nan nan nan nan nan nan nan nan nan nan nan nan nan 36 37 nan nan nan nan nan nan nan nan nan nan nan nan nan nan nan nan nan nan nan nan nan nan nan nan nan nan
nan nan nan nan nan nan nan nan nan nan nan nan nan nan nan nan nan nan nan nan nan nan nan nan nan nan nan nan nan nan nan nan nan nan nan nan nan nan nan nan nan nan nan nan nan nan nan nan nan nan nan nan nan nan nan nan nan nan nan nan nan nan nan
nan nan nan nan nan nan nan nan nan nan nan nan nan nan nan nan nan nan nan nan nan nan nan nan nan nan nan nan nan nan nan nan nan nan nan nan nan nan nan nan nan nan nan nan nan nan nan nan nan nan nan nan nan nan nan nan nan nan nan nan nan nan nan
nan nan nan nan nan nan nan nan nan nan nan nan nan nan nan nan nan nan nan nan nan nan nan nan nan nan nan nan nan nan nan nan nan nan nan nan nan nan nan nan nan nan nan nan nan nan nan nan nan nan nan nan nan nan nan nan nan nan nan nan nan nan nan
nan nan nan nan nan nan nan nan nan nan nan nan nan nan nan nan nan nan nan nan nan nan nan nan nan nan nan nan nan nan nan nan nan nan nan nan nan nan nan nan nan nan nan nan nan nan nan nan nan nan nan nan nan nan nan nan nan nan nan nan nan nan nan
nan nan nan nan nan nan nan nan nan nan nan nan nan nan nan nan nan nan nan nan nan nan nan nan nan nan nan nan nan nan nan nan nan nan nan nan nan nan nan nan nan nan nan nan nan nan nan nan nan nan nan nan nan nan nan nan nan nan nan nan nan nan nan
Wind_Direction
207 215 212 217 220 221 214 208 208 218 225 214 207 240 236 230 226 204 181 168 158 154 149 154 151 153 150 156 163 165 175 186 184 191 197 192 190 199 206 203 226 95 86 75 79 67 64 71 75 87 99 111 115 112 102 102 102 107 117 127 134 133 128
201 211 215 213 215 215 212 210 201 205 221 225 207 231 226 228 223 212 194 187 182 160 158 162 166 162 159 160 164 163 169 175 180 184 191 186 182 183 193 201 196 138 114 96 92 86 87 76 85 90 101 119 127 126 115 116 110 109 110 117 118 119 125
197 199 216 208 217 211 208 211 205 205 222 228 223 224 229 227 222 222 213 196 195 194 187 182 176 174 175 177 180 171 173 181 180 185 191 184 177 171 176 188 182 173 105 121 109 95 105 109 108 104 100 116 136 136 131 134 126 115 107 103 97 98 113
197 196 199 211 215 215 211 210 211 209 219 234 237 233 231 235 225 221 224 212 212 216 222 203 198 188 187 188 190 190 185 187 192 196 196 199 197 190 190 184 187 198 198 114 106 119 129 137 116 113 104 123 140 138 147 139 136 139 129 118 104 95 90
196 194 201 207 204 213 219 209 210 215 224 230 238 237 232 232 233 223 222 222 212 224 235 250 226 215 206 203 198 201 199 196 200 210 213 213 219 224 218 205 202 215 229 182 147 144 157 182 153 143 140 149 159 165 150 166 157 147 145 145 68 72 44
195 193 197 211 nan 217 226 221 219 221 229 237 244 243 233 236 231 236 233 232 216 204 210 223 229 234 231 223 215 213 210 203 205 213 223 230 236 247 251 241 238 222 232 227 228 174 189 207 200 194 188 172 181 191 180 216 197 221 223 233 108 282 305
199 198 197 207 211 213 229 231 229 226 228 231 240 242 241 234 236 237 233 238 236 231 220 218 226 234 232 235 231 230 225 218 214 219 222 230 241 250 253 246 247 241 233 229 225 225 217 212 222 225 226 227 211 232 253 281 289 292 288 294 303 271 283
211 204 199 210 217 219 227 232 238 236 233 233 240 249 255 243 237 237 236 238 238 237 227 225 222 227 232 234 239 242 238 229 224 226 226 231 239 242 245 247 245 239 233 235 223 229 225 223 223 230 243 240 240 245 271 287 301 308 303 309 309 298 294
213 208 199 209 nan 223 231 236 240 246 249 246 250 254 257 248 243 242 241 239 237 240 237 233 230 228 231 235 237 245 246 238 232 230 231 237 238 243 245 244 241 240 240 235 228 224 231 234 239 244 247 244 248 255 262 279 294 294 299 304 305 308 304
218 208 202 198 nan 214 228 238 241 244 251 250 245 251 256 250 244 243 242 242 239 242 242 239 234 233 234 235 236 239 246 244 237 239 236 240 241 246 245 245 242 243 245 237 235 236 230 239 247 251 254 255 254 261 263 276 286 291 296 305 303 299 301
229 214 206 197 207 212 nan nan 250 252 258 254 250 250 252 252 247 245 248 245 243 242 244 242 238 237 239 241 245 241 244 251 248 245 241 241 242 246 246 246 245 244 245 243 241 243 243 238 241 249 255 258 260 258 262 275 287 292 295 293 291 294 292
232 213 205 205 205 205 213 nan 245 254 256 255 257 255 254 255 253 247 249 249 247 246 245 246 241 240 241 242 247 245 249 253 256 257 254 249 247 252 253 251 249 250 245 245 248 246 249 251 245 248 250 253 258 260 266 274 282 292 294 296 293 293 287
229 209 208 207 212 210 204 nan nan 254 254 259 261 262 257 260 257 254 249 249 248 248 249 249 247 245 247 247 247 245 249 255 260 261 262 259 258 256 258 261 260 265 263 255 253 252 250 251 250 247 254 256 259 261 266 274 278 282 285 286 286 290 289
226 208 209 209 216 217 218 nan 198 213 253 255 260 262 263 262 265 261 254 251 247 247 249 248 252 250 250 249 247 246 248 251 254 257 261 261 260 259 262 265 267 273 275 271 268 263 257 256 256 254 256 262 269 271 271 275 277 277 280 281 283 285 290
211 207 211 214 219 224 226 225 219 204 202 245 258 266 263 263 262 259 257 258 258 253 255 254 256 258 255 251 250 247 245 245 245 249 253 256 258 258 259 263 267 274 277 276 277 276 272 269 267 263 264 265 269 270 270 274 275 271 272 276 278 282 286
199 216 223 225 226 232 236 236 231 224 212 206 253 262 257 258 259 257 258 255 251 247 238 242 245 255 255 253 253 250 248 248 244 245 247 248 252 254 256 260 264 268 275 279 282 284 284 282 279 276 274 274 272 267 264 262 261 258 273 273 273 276 274
198 204 211 219 222 228 239 240 238 233 220 217 210 230 251 252 251 252 254 255 256 251 243 244 242 240 241 243 246 251 251 250 247 244 243 243 246 245 248 252 262 270 268 268 270 273 276 283 283 279 275 275 274 269 255 246 244 238 242 250 253 261 268
200 204 217 222 219 217 225 237 241 238 235 227 222 221 222 224 230 249 254 254 256 249 247 250 248 245 238 230 228 234 242 244 246 244 241 241 241 243 243 244 245 252 258 261 263 262 264 266 270 272 273 266 259 257 255 254 247 244 247 250 256 262 267
228 224 220 233 232 235 240 240 234 232 230 230 225 221 222 231 231 222 216 215 221 233 243 244 239 237 239 234 227 222 226 234 240 240 242 244 245 245 241 242 242 246 252 254 251 252 257 262 264 267 268 270 269 264 259 258 252 253 255 258 262 264 269
249 248 238 225 234 228 224 226 238 241 239 233 229 225 219 219 226 230 230 221 213 218 227 234 234 236 241 243 239 234 228 223 227 234 239 246 249 247 244 241 242 242 245 250 247 248 250 251 253 256 262 268 270 264 257 255 248 246 251 256 259 263 267
256 260 249 245 241 227 224 223 218 224 231 227 227 229 227 222 225 230 229 229 228 231 235 242 244 244 248 251 250 248 245 244 244 239 228 223 228 235 242 240 237 235 237 242 252 255 254 253 251 248 250 253 257 260 257 253 246 247 248 249 252 257 266
246 253 258 259 261 251 236 226 222 222 223 222 230 234 234 235 235 232 229 229 235 239 243 240 240 245 251 252 249 246 246 245 247 253 254 244 234 237 238 238 241 244 244 245 246 247 249 248 250 253 253 253 257 260 260 255 250 250 249 248 249 257 264
229 234 243 249 259 264 257 247 228 220 219 222 229 236 237 239 242 242 241 239 233 236 239 239 234 231 236 241 239 239 239 245 253 253 251 249 248 244 245 249 246 249 251 254 253 254 253 255 254 256 258 256 255 259 258 256 253 252 252 251 248 256 260
nan nan 238 246 247 245 244 245 241 224 223 226 230 232 230 228 230 235 241 242 232 232 235 241 241 239 240 242 242 242 244 249 255 252 243 239 241 245 250 249 251 252 253 257 257 253 251 253 254 256 258 258 257 257 258 256 253 251 252 254 254 260 264
244 244 244 240 244 248 248 245 242 235 232 235 233 223 222 226 229 230 229 228 235 241 240 240 245 249 251 250 250 249 247 251 255 255 252 248 242 242 250 252 246 245 250 257 258 256 255 257 259 261 261 262 263 264 261 259 256 255 255 255 257 263 267
nan nan nan 245 242 239 240 244 244 240 238 239 238 237 236 235 235 235 233 229 232 239 242 243 246 249 252 252 247 246 246 249 254 259 263 260 252 246 247 247 245 242 245 250 257 259 258 258 260 263 261 260 261 263 266 267 262 257 254 258 259 263 268
nan nan nan nan 243 238 239 242 245 241 233 229 234 241 244 246 245 241 239 238 233 231 233 239 245 249 249 248 245 242 242 243 251 259 261 264 259 247 240 241 245 245 243 247 252 257 259 260 262 263 263 263 261 261 261 263 262 258 254 254 255 259 267
nan nan nan nan 243 239 238 235 232 231 231 234 236 235 236 239 241 241 243 240 233 227 233 244 246 244 242 245 248 249 251 256 261 263 263 267 272 262 244 240 243 247 250 251 255 257 259 259 257 257 255 257 264 264 261 259 259 260 254 252 253 255 260
nan nan nan nan nan nan 238 234 233 nan nan 252 nan nan nan 244 246 248 250 248 239 237 245 253 256 253 250 252 256 254 254 255 256 255 259 266 269 270 264 254 249 248 253 257 260 263 266 266 263 260 258 254 254 258 259 258 260 260 258 256 258 258 258
nan nan nan nan nan nan nan nan nan nan nan nan nan nan nan nan 256 257 257 258 255 251 251 254 257 257 256 257 259 258 256 nan 258 259 262 267 269 271 272 269 264 258 255 255 256 257 260 263 260 257 256 255 251 254 256 256 259 260 260 260 258 257 255
nan nan nan nan nan nan nan nan nan nan nan nan nan nan nan nan nan 259 258 257 256 256 255 nan 255 256 255 nan 254 256 258 259 nan 262 264 265 266 266 265 264 262 259 255 254 251 246 247 252 257 259 261 257 254 252 252 252 255 nan 258 257 256 254 254
nan nan nan nan nan nan nan nan nan nan nan nan nan nan nan nan nan nan nan nan nan 258 259 257 255 nan nan 257 257 256 256 256 256 261 261 261 261 259 254 nan nan nan 256 255 nan 252 254 nan nan nan nan nan 256 253 253 254 nan 252 250 250 nan nan nan
nan nan nan nan nan nan nan nan nan nan nan nan nan nan nan nan nan nan nan nan nan nan nan nan nan nan nan nan nan nan nan nan nan nan nan 255 255 nan nan nan nan nan nan nan nan nan nan nan nan nan nan nan nan nan nan nan nan nan nan nan nan nan nan
nan nan nan nan nan nan nan nan nan nan nan nan nan nan nan nan nan nan nan nan nan nan nan nan nan nan nan nan nan nan nan nan nan nan nan nan nan nan nan nan nan nan nan nan nan nan nan nan nan nan nan nan nan nan nan nan nan nan nan nan nan nan nan
nan nan nan nan nan nan nan nan nan nan nan nan nan nan nan nan nan nan nan nan nan nan nan nan nan nan nan nan nan nan nan nan nan nan nan nan nan nan nan nan nan nan nan nan nan nan nan nan nan nan nan nan nan nan nan nan nan nan nan nan nan nan nan
nan nan nan nan nan nan nan nan nan nan nan nan nan nan nan nan nan nan nan nan nan nan nan nan nan nan nan nan nan nan nan nan nan nan nan nan nan nan nan nan nan nan nan nan nan nan nan nan nan nan nan nan nan nan nan nan nan nan nan nan nan nan nan
nan nan nan nan nan nan nan nan nan nan nan nan nan nan nan nan nan nan nan nan nan nan nan nan nan nan nan nan nan nan nan nan nan nan nan nan nan nan nan nan nan nan nan nan nan nan nan nan nan nan nan nan nan nan nan nan nan nan nan nan nan nan nan
nan nan nan nan nan nan nan nan nan nan nan nan nan nan nan nan nan nan nan nan nan nan nan nan nan nan nan nan nan nan nan nan nan nan nan nan nan nan nan nan nan nan nan nan nan nan nan nan nan nan nan nan nan nan nan nan nan nan nan nan nan nan nan